Tracking 29892 objects as of 21-Nov-2024
HD Live streaming from Space Station
objects crossing your sky now

SL-8 R/B

Track SL-8 R/B now!
10-day predictions


NORAD ID: 12644
Int'l Code: 1981-074J
Perigee: 1,469.3 km
Apogee: 1,677.9 km
Inclination: 74.0 °
Period: 117.5 minutes
Semi major axis: 7944 km
RCS: 5.9979 m2 (large)
Launch date: August 6, 1981
Source: Commonwealth of Independent States (former USSR) (CIS)
Launch site: PLESETSK MISSILE AND SPACE COMPLEX (PKMTR)

Note: This is a ROCKET BODY
Your satellite tracking list
Your tracking list is empty




NASA's NSSDC Master Catalog

Two Line Element Set (TLE):
1 12644U 81074J   24325.11987597 -.00000026  00000-0 -94747-4 0  9995
2 12644  74.0327 223.9851 0131272 229.8642 204.0275 12.26006766937376
Source of the keplerian elements: AFSPC